Precipitable_Water
0.63 0.62 0.61 0.58 0.56 0.55 0.53 0.52 0.50 0.48 0.47 0.46 0.45 0.44 0.43 0.41 0.35 0.44 0.44 0.71 0.82 1.16 1.33 1.50 2.06 1.92 1.91 1.61 1.66 1.65 1.18 1.00 0.96 0.89 0.84 1.07 0.95 0.95 1.10 1.04 1.14 1.20 1.12 1.11 1.33
0.63 0.62 0.60 0.58 0.57 0.55 0.53 0.52 0.51 0.48 0.47 0.46 0.45 0.44 0.44 0.42 0.26 0.22 0.42 0.80 0.88 0.97 0.96 1.32 1.64 1.64 1.37 1.44 1.44 1.20 1.09 1.02 1.32 1.35 1.05 1.06 0.91 0.95 0.99 1.00 1.01 1.01 1.18 1.15 1.28
0.62 0.61 0.60 0.59 0.57 0.56 0.54 0.52 0.51 0.49 0.48 0.46 0.45 0.44 0.44 0.41 0.25 0.20 0.58 0.74 0.79 0.88 0.88 1.24 1.35 1.37 1.29 1.34 1.23 1.27 0.94 1.26 1.23 1.19 1.28 1.03 1.14 1.09 1.25 1.07 0.98 0.95 1.02 1.06 1.21
0.64 0.63 0.61 0.60 0.58 0.57 0.54 0.51 0.50 0.48 0.48 0.47 0.46 0.44 0.44 0.36 0.36 0.60 0.52 0.63 0.73 0.85 0.85 1.13 1.23 1.05 0.93 0.99 1.12 1.21 1.25 1.16 1.11 1.28 1.28 1.04 1.31 1.12 0.99 0.93 1.08 1.12 1.07 1.07 1.11
0.66 0.64 0.62 0.60 0.59 0.57 0.55 0.52 0.48 0.47 0.49 0.46 0.50 0.46 0.30 0.24 0.30 0.65 0.50 0.53 0.64 0.69 0.78 1.03 0.93 0.80 0.76 0.83 1.10 1.07 1.14 1.24 1.21 1.28 1.25 1.20 1.06 1.12 1.13 1.11 1.15 1.08 1.02 1.07 1.09
0.67 0.65 0.63 0.61 0.60 0.57 0.54 0.51 0.49 0.48 0.49 0.48 0.54 0.46 0.23 0.13 0.53 0.59 0.51 0.39 0.51 0.66 0.79 1.03 0.96 0.80 0.76 0.85 0.89 0.97 1.06 1.05 1.19 1.19 1.32 1.24 1.14 1.22 1.22 1.20 1.10 0.97 0.97 1.04 1.12
0.68 0.67 0.64 0.61 0.59 0.56 0.53 0.50 0.48 0.46 0.49 0.50 0.51 0.37 0.21 0.19 0.43 0.69 0.52 0.29 0.49 0.75 0.85 1.05 0.91 0.79 0.81 0.75 0.92 0.93 0.93 1.07 1.11 1.12 1.15 1.23 1.09 1.04 1.19 1.13 1.03 0.91 0.98 1.01 1.04
0.70 0.67 0.64 0.62 0.59 0.55 0.51 0.48 0.45 0.44 0.48 0.51 0.46 0.37 0.14 0.36 0.33 0.41 0.58 0.45 0.69 0.90 0.93 0.92 0.94 0.83 0.74 0.78 0.81 0.83 0.89 0.90 0.99 1.10 1.10 1.01 0.81 1.09 1.21 1.08 0.97 0.90 0.97 1.01 1.03
0.71 0.68 0.65 0.62 0.59 0.54 0.50 0.45 0.42 0.45 0.49 0.53 0.41 0.40 0.20 0.38 0.27 0.25 0.58 0.47 0.67 0.84 0.87 0.85 0.84 0.69 0.68 0.75 0.75 0.78 0.66 0.72 0.84 1.13 0.96 1.05 0.99 1.21 1.28 1.14 0.93 0.93 0.95 1.03 1.05
0.72 0.69 0.66 0.63 0.59 0.54 0.48 0.49 0.57 0.69 0.64 0.55 0.43 0.32 0.40 0.26 0.28 0.22 0.51 0.61 0.66 0.68 0.66 0.57 0.56 0.54 0.59 0.62 0.55 0.56 0.60 0.77 0.75 0.96 0.93 1.03 1.05 1.08 1.13 1.06 0.96 0.94 0.97 1.07 1.13
0.71 0.70 0.67 0.64 0.61 0.56 0.51 0.56 0.46 0.51 0.52 0.33 0.37 0.34 0.35 0.33 0.23 0.22 0.51 0.55 0.43 0.35 0.31 0.37 0.37 0.40 0.47 0.52 0.58 0.54 0.61 0.69 0.69 0.83 0.79 0.87 0.86 0.89 1.08 1.11 1.05 1.01 1.05 1.08 1.14
0.71 0.70 0.68 0.65 0.61 0.54 0.52 0.42 0.47 0.44 0.26 0.37 0.35 0.40 0.42 0.40 0.25 0.23 0.35 0.43 0.25 0.20 0.25 0.26 0.24 0.40 0.43 0.47 0.53 0.51 0.54 0.54 0.59 0.65 0.72 0.82 0.82 1.01 1.15 1.16 1.23 1.09 1.05 1.10 1.10
0.73 0.71 0.69 0.66 0.60 0.59 0.50 0.45 0.54 0.45 0.29 0.22 0.26 0.26 0.31 0.36 0.29 0.27 0.24 0.34 0.29 0.21 0.20 0.20 0.30 0.39 0.40 0.38 0.38 0.43 0.45 0.54 0.49 0.49 0.61 0.76 0.77 0.91 1.08 1.23 1.27 1.27 1.17 1.18 1.15
0.72 0.72 0.70 0.66 0.51 0.60 0.55 0.58 0.49 0.48 0.24 0.25 0.31 0.30 0.31 0.29 0.24 0.29 0.29 0.21 0.21 0.19 0.21 0.20 0.28 0.31 0.32 0.31 0.33 0.35 0.46 0.46 0.41 0.40 0.45 0.60 0.54 0.77 0.89 1.07 1.16 1.19 1.27 1.20 1.19
0.72 0.72 0.71 0.71 0.56 0.54 0.58 0.57 0.48 0.48 0.26 0.38 0.36 0.40 0.34 0.25 0.25 0.26 0.29 0.23 0.19 0.19 0.20 0.19 0.19 0.20 0.20 0.23 0.23 0.22 0.39 0.40 0.40 0.42 0.51 0.60 0.59 0.62 0.88 0.93 0.98 1.10 1.23 1.26 1.29
0.71 0.71 0.73 0.68 0.66 0.53 0.60 0.54 0.46 0.29 0.24 0.33 0.40 0.36 0.31 0.28 0.26 0.28 0.25 0.26 0.25 0.20 0.20 0.18 0.20 0.19 0.17 0.19 0.20 0.22 0.24 0.34 0.44 0.44 0.42 0.54 0.55 0.63 0.70 0.74 0.90 1.07 1.24 1.28 1.37
0.70 0.69 0.70 0.74 0.53 0.64 0.54 0.46 0.29 0.27 0.34 0.33 0.31 0.32 0.30 0.26 0.25 0.24 0.22 0.22 0.20 0.16 0.14 0.16 0.17 0.20 0.22 0.18 0.18 0.19 0.19 0.21 0.30 0.48 0.47 0.57 0.55 0.56 0.68 0.68 0.86 1.01 1.16 1.28 1.32
0.66 0.67 0.66 0.68 0.69 0.60 0.54 0.38 0.27 0.35 0.31 0.37 0.33 0.29 0.25 0.30 0.28 0.26 0.25 0.24 0.25 0.19 0.17 0.15 0.15 0.21 0.24 0.20 0.17 0.18 0.20 0.21 0.23 0.34 0.41 0.59 0.51 0.57 0.68 0.69 0.80 0.98 1.07 1.20 1.30
0.68 0.76 0.66 0.63 0.56 0.59 0.45 0.35 0.30 0.29 0.31 0.29 0.28 0.24 0.23 0.27 0.28 0.28 0.25 0.24 0.27 0.25 0.17 0.15 0.16 0.24 0.25 0.24 0.21 0.17 0.19 0.30 0.29 0.34 0.34 0.47 0.58 0.73 0.72 0.69 0.77 0.88 0.92 1.01 1.15
0.60 0.68 0.65 0.71 0.57 0.51 0.42 0.38 0.37 0.32 0.32 0.29 0.24 0.33 0.34 0.34 0.32 0.30 0.26 0.28 0.27 0.29 0.28 0.23 0.18 0.24 0.25 0.25 0.23 0.20 0.22 0.18 0.24 0.24 0.29 0.48 0.53 0.61 0.76 0.73 0.80 0.81 0.79 0.88 1.11
0.88 0.70 0.65 0.54 0.52 0.40 0.38 0.39 0.41 0.43 0.37 0.27 0.29 0.34 0.39 0.41 0.40 0.32 0.28 0.36 0.35 0.31 0.31 0.28 0.24 0.23 0.26 0.24 0.23 0.21 0.18 0.16 0.20 0.22 0.24 0.33 0.53 0.76 0.84 0.83 0.83 0.86 0.84 0.80 0.95
0.91 0.61 0.69 0.56 0.45 0.49 0.41 0.49 0.49 0.36 0.40 0.36 0.28 0.33 0.36 0.41 0.40 0.38 0.37 0.46 0.47 0.44 0.39 0.42 0.27 0.22 0.24 0.28 0.28 0.27 0.24 0.19 0.15 0.19 0.25 0.32 0.43 0.71 0.85 1.01 0.98 0.91 0.89 0.88 0.83
0.69 0.73 0.59 0.73 0.53 0.61 0.64 0.59 0.48 0.45 0.44 0.46 0.42 0.41 0.41 0.41 0.38 0.40 0.42 0.52 0.52 0.49 0.46 0.47 0.39 0.34 0.27 0.25 0.26 0.25 0.26 0.24 0.20 0.22 0.20 0.28 0.43 0.70 0.82 0.88 0.91 0.95 0.97 0.87 0.84
0.89 0.67 0.59 0.61 0.69 0.59 0.54 0.58 0.55 0.59 0.53 0.42 0.44 0.45 0.41 0.38 0.42 0.37 0.40 0.48 0.50 0.48 0.46 0.44 0.39 0.40 0.32 0.30 0.38 0.38 0.37 0.27 0.27 0.21 0.22 0.27 0.48 0.66 0.75 0.78 0.85 0.91 0.95 0.96 0.94
0.87 0.69 0.80 0.66 0.63 0.68 0.59 0.57 0.51 0.51 0.64 0.62 0.51 0.54 0.52 0.37 0.44 0.47 0.54 0.59 0.60 0.61 0.50 0.45 0.34 0.35 0.36 0.39 0.45 0.44 0.43 0.42 0.31 0.28 0.23 0.28 0.55 0.67 0.77 0.80 0.80 0.86 0.91 0.91 0.90
0.51 0.61 0.76 0.69 0.68 0.57 0.55 0.58 0.62 0.62 0.63 0.59 0.60 0.65 0.64 0.55 0.59 0.53 0.59 0.60 0.60 0.60 0.61 0.61 0.48 0.41 0.36 0.45 0.51 0.43 0.48 0.46 0.45 0.43 0.38 0.47 0.60 0.76 0.78 0.90 0.93 0.93 0.89 0.89 0.92
0.70 0.71 0.66 0.60 0.61 0.54 0.55 0.65 0.66 0.66 0.64 0.65 0.65 0.62 0.58 0.60 0.61 0.60 0.64 0.66 0.66 0.60 0.59 0.58 0.50 0.45 0.36 0.45 0.47 0.44 0.50 0.50 0.50 0.61 0.53 0.49 0.67 0.71 0.75 0.94 0.97 0.93 0.87 0.82 0.86
Wind_Speed
10 10 11 12 12 12 13 13 13 13 13 13 12 12 11 11 10 5 3 2 2 2 4 5 7 6 8 10 11 8 6 7 3 7 6 9 10 9 11 12 11 7 11 14 16
11 11 12 12 13 13 13 13 13 14 13 12 12 11 11 11 9 7 5 2 0 1 3 1 3 2 9 10 8 7 8 3 1 6 7 9 9 9 11 11 11 11 14 15 15
12 12 13 13 13 13 13 14 14 14 13 12 12 11 10 9 7 4 3 4 3 1 1 3 4 5 5 7 4 3 6 9 8 9 7 8 5 10 9 5 10 12 14 14 14
14 14 14 14 14 14 14 14 14 13 13 12 11 10 9 6 5 3 2 5 4 3 2 3 5 10 4 3 4 7 3 7 11 10 8 7 7 6 5 8 11 11 13 14 14
15 15 16 15 15 15 15 14 14 13 12 11 10 9 6 5 7 4 4 5 6 4 2 3 7 8 6 8 4 7 8 9 10 11 9 8 4 3 3 12 11 11 12 13 14
17 17 17 17 16 16 16 15 15 13 12 11 10 8 6 6 5 6 6 6 7 5 3 3 6 6 3 9 9 5 9 3 8 8 8 6 1 5 7 9 10 12 12 13 13
18 18 18 17 17 17 17 16 16 14 12 11 9 7 8 8 5 4 2 5 8 6 4 4 6 4 4 7 9 6 6 5 6 6 9 10 2 5 4 3 9 11 11 12 12
19 19 19 18 18 18 18 17 16 15 13 10 8 8 8 7 8 5 3 5 7 7 7 6 4 3 2 8 9 5 6 5 3 3 6 11 6 4 5 5 10 11 11 11 12
19 19 19 19 19 19 18 18 16 14 12 11 8 8 9 7 7 8 6 6 7 7 6 6 3 3 4 6 8 8 4 3 4 4 4 9 6 3 3 5 11 11 10 10 11
20 19 19 19 19 18 18 17 13 11 10 10 10 8 8 8 8 7 8 8 7 6 6 6 4 4 4 3 7 6 5 7 1 2 4 13 10 3 4 6 10 12 10 10 11
20 20 19 19 18 17 14 10 10 10 11 12 9 10 8 5 4 6 8 8 7 5 6 7 5 6 8 7 6 6 5 5 4 4 4 5 6 5 3 5 11 13 11 10 10
20 20 19 18 17 16 12 10 10 12 14 15 17 17 15 10 7 8 9 9 8 7 7 5 7 9 8 3 7 5 6 6 3 4 3 1 4 2 2 5 12 13 12 11 10
20 19 18 18 16 12 12 13 12 12 12 14 15 15 15 12 11 10 10 11 10 9 10 9 11 12 12 10 8 7 6 5 4 6 3 2 2 3 3 7 10 13 13 13 11
19 18 17 16 12 10 10 9 10 10 9 11 9 10 13 12 12 15 14 11 12 13 12 10 10 10 10 8 7 7 7 7 7 7 4 4 5 5 4 9 7 9 14 15 13
17 16 14 13 13 10 9 9 8 7 7 7 5 6 8 12 5 8 14 13 13 12 10 11 10 10 10 9 11 10 9 9 6 5 6 6 4 5 6 6 8 8 12 16 15
13 12 11 9 10 12 10 9 6 5 8 6 5 7 9 11 12 8 11 14 13 14 14 14 14 11 8 8 8 9 9 8 8 9 7 4 2 3 4 8 8 7 13 16 14
11 9 8 8 8 6 6 6 5 5 4 5 7 6 7 9 10 10 10 12 12 10 12 12 13 12 12 10 9 10 7 5 4 8 2 8 5 9 5 2 6 9 10 14 16
9 7 4 6 7 5 5 4 5 4 3 3 5 7 8 9 12 11 12 11 14 15 13 12 13 14 15 13 10 10 8 7 6 5 10 8 4 3 6 2 6 9 7 11 15
7 4 3 3 7 6 5 6 2 3 4 5 7 5 7 9 10 10 14 12 14 14 12 10 13 11 10 12 11 11 9 10 7 9 4 1 3 5 5 6 6 7 4 9 13
3 3 2 4 7 6 5 3 3 3 6 5 7 7 6 5 9 9 10 12 13 16 16 13 11 12 6 7 10 10 12 7 6 5 1 0 1 3 5 6 6 5 4 5 12
4 3 4 4 6 5 3 3 3 6 3 3 5 6 6 5 6 6 8 10 12 8 8 12 12 14 10 9 10 10 12 12 11 9 7 3 6 7 10 4 7 6 6 5 9
4 3 3 6 4 3 3 5 5 5 4 4 5 6 7 6 5 4 3 2 2 2 6 7 11 12 16 15 13 12 11 13 8 13 11 8 9 11 11 6 6 5 5 6 6
4 2 3 5 1 4 6 5 3 3 6 5 4 5 7 6 6 7 7 9 5 7 8 9 9 9 12 12 13 13 15 13 13 11 13 9 10 9 9 6 4 3 3 4 5
4 2 2 1 2 5 8 6 4 2 5 3 7 8 7 8 9 10 12 12 10 8 9 11 14 14 12 13 11 10 10 16 12 13 12 11 11 12 10 8 6 5 5 5 5
3 3 3 2 5 6 7 7 7 5 3 3 5 6 6 6 8 7 9 11 10 5 10 8 12 16 15 13 11 10 9 7 15 12 13 12 13 13 11 10 8 6 7 6 7
5 4 5 6 8 6 5 6 6 7 7 7 8 10 7 5 7 11 12 12 10 11 10 8 9 11 15 12 11 10 6 7 6 7 9 12 12 12 12 10 8 9 7 6 6
8 6 5 6 8 7 7 8 9 10 8 10 11 10 9 11 13 14 16 18 17 14 14 12 11 10 14 14 12 10 10 10 9 5 9 7 15 16 13 12 12 11 9 8 8
Wind_Direction
325 325 325 324 324 322 322 322 322 322 322 321 322 323 324 325 318 302 293 319 14 83 43 72 111 70 41 31 57 52 40 31 68 95 85 107 88 83 103 107 110 91 115 124 131
321 321 322 321 322 322 321 321 321 321 320 320 319 320 322 325 318 284 255 257 295 84 18 1 144 104 11 22 37 43 46 105 98 25 91 108 102 94 116 100 101 105 121 127 134
315 316 317 318 319 319 319 319 319 320 319 318 317 316 318 323 319 293 249 231 238 234 8 5 3 317 340 15 29 42 45 46 61 72 91 63 97 92 89 103 121 125 132 138 137
308 309 310 311 313 315 316 316 317 317 316 316 315 312 313 310 343 338 253 231 235 231 252 324 336 329 13 42 27 22 36 51 78 48 54 54 98 36 102 127 129 127 136 144 145
303 303 305 305 306 308 310 312 313 312 312 311 310 310 305 288 289 303 271 247 220 214 239 293 323 352 15 355 338 12 21 28 20 56 67 63 38 340 81 126 128 132 142 147 152
299 300 301 301 302 303 303 304 306 305 305 305 303 301 292 280 294 295 281 235 209 205 235 289 332 347 7 30 44 353 357 7 16 56 71 73 79 110 99 131 132 140 147 153 157
295 296 298 299 300 299 299 297 298 296 295 297 295 286 279 263 295 295 281 208 200 204 233 295 339 14 348 10 25 36 10 3 358 18 33 57 59 158 138 147 141 149 152 157 160
293 294 294 296 297 297 296 294 291 286 283 284 284 279 271 284 253 272 246 208 208 223 245 300 304 309 333 335 333 6 50 48 356 91 48 45 70 170 172 155 152 153 158 162 166
293 292 292 293 293 294 293 293 286 279 270 271 270 271 271 267 258 255 229 219 217 237 255 268 281 264 312 348 8 33 28 321 38 198 44 6 20 349 165 170 166 161 161 159 165
292 292 291 291 291 292 292 288 276 273 265 260 258 274 263 259 251 237 225 220 226 236 247 245 246 244 284 341 343 322 5 9 52 159 47 56 24 326 190 182 183 168 169 169 172
290 290 289 289 289 290 287 279 271 267 264 252 250 249 271 253 245 233 219 220 235 241 236 237 230 243 278 273 267 309 302 279 53 162 60 77 55 36 163 195 195 180 176 176 173
289 287 287 287 286 283 268 266 275 275 274 262 252 249 254 265 249 241 224 217 225 231 239 247 226 244 285 302 260 296 293 328 320 55 26 148 357 10 198 198 196 187 186 181 180
288 286 284 284 282 265 260 265 278 280 270 268 244 244 241 244 243 243 224 225 228 228 234 233 245 264 275 266 289 284 279 327 335 319 312 242 320 278 240 199 179 203 194 189 186
288 284 282 284 259 262 256 268 275 280 268 257 235 244 234 235 257 237 226 220 228 235 237 239 252 263 272 268 286 294 296 344 341 325 303 299 280 286 221 199 190 205 197 197 191
291 285 279 269 255 246 263 270 274 265 274 206 205 231 221 220 236 234 223 220 229 233 234 247 253 259 267 268 270 269 280 313 329 318 353 341 351 272 184 212 210 204 195 197 196
304 287 278 252 242 240 260 264 259 234 247 220 229 238 234 227 246 254 218 218 232 243 252 255 261 258 263 268 278 278 279 300 316 332 325 339 24 302 176 207 210 212 195 191 194
316 299 269 250 221 238 241 227 208 222 258 230 236 203 215 220 237 209 219 221 228 236 245 255 252 254 256 259 269 263 270 274 338 27 280 307 313 241 255 203 211 191 191 186 188
328 311 265 225 209 218 199 188 195 296 336 285 295 271 252 241 230 233 221 232 233 236 252 250 264 256 256 238 238 251 244 234 261 256 305 333 246 249 169 77 141 162 175 186 189
351 58 88 120 183 181 174 185 283 306 306 294 303 274 269 242 239 228 225 237 236 227 232 255 261 277 255 234 226 266 255 253 257 288 338 222 102 113 146 127 110 139 147 177 185
33 64 86 121 137 151 156 204 300 324 291 280 262 289 303 248 224 236 241 244 249 235 231 245 257 258 264 236 246 247 252 277 263 251 263 88 66 171 190 164 169 162 152 163 185
56 63 94 126 145 151 168 272 315 336 350 282 276 290 303 312 320 228 237 269 249 229 238 255 249 256 265 254 249 271 259 253 247 237 237 240 252 232 307 188 176 187 165 159 176
33 64 105 134 133 184 273 290 306 301 317 270 261 268 267 299 283 294 294 337 347 265 239 272 251 254 255 261 256 256 254 237 231 256 243 244 269 228 211 153 137 152 180 177 181
32 64 102 148 273 311 333 311 282 301 310 314 285 297 300 279 271 282 282 311 289 271 266 277 264 277 274 267 270 266 260 252 250 252 245 234 246 212 186 185 191 179 185 191 188
42 49 79 178 282 288 329 336 329 264 321 277 294 281 281 279 270 265 266 277 294 273 258 269 257 246 247 253 286 295 304 238 252 248 251 248 214 205 200 209 226 236 220 207 193
14 12 4 338 333 329 334 319 314 312 311 319 295 286 296 279 283 286 294 290 304 284 276 262 269 249 256 270 287 283 288 317 241 253 241 251 180 186 199 212 224 217 220 223 217
328 322 301 299 314 312 308 307 317 318 329 315 301 313 305 306 305 288 295 289 272 281 297 289 281 264 257 269 287 268 295 281 292 297 288 200 195 200 201 207 219 213 216 229 232
340 313 291 281 309 320 330 325 320 329 301 302 320 307 286 290 302 291 279 270 269 272 275 281 282 275 260 266 267 247 284 250 249 309 280 226 226 210 209 215 212 218 221 231 242